When you browse on this site, cookies collect data to enhance your experience and personalize the content and advertising you see.
Visit our Privacy Policy to learn more. By continuing to use the site, you agree to this use of cookies and data.
  • In United Kingdom
  • List of Countries
  • For 7 days
  • Water Temperature
  • Weather Map
  • Weather Widgets
  • user-avatar
    Login

    Hourly Weather Nicastro

    Today, 19 September, Thursday

    Time Temperature Precipitation Wind Pressure Humidity
    00:00 +20°C° 0 mm 1 mps 728 mmHg 69%
    01:00 +20°C° 0 mm 1 mps 729 mmHg 66%
    02:00 +21°C° 0 mm 1 mps 728 mmHg 63%
    03:00 +21°C° 0 mm 1 mps 728 mmHg 60%
    04:00 +21°C° 0 mm 1 mps 728 mmHg 56%
    05:00 +22°C° 0 mm 1 mps 728 mmHg 55%
    06:00 +23°C° 0 mm 1 mps 728 mmHg 53%
    07:00 +22°C° 0 mm 0 mps 728 mmHg 52%
    08:00 +26°C° 0 mm 1 mps 728 mmHg 48%
    09:00 +28°C° 0 mm 1 mps 729 mmHg 43%
    10:00 +30°C° 0 mm 1 mps 729 mmHg 39%
    11:00 +30°C° 0.2 mm 2 mps 729 mmHg 39%
    12:00 +30°C° 0.2 mm 3 mps 729 mmHg 40%
    13:00 +30°C° 0.2 mm 4 mps 729 mmHg 41%
    14:00 +29°C° 0.2 mm 3 mps 729 mmHg 45%
    15:00 +28°C° 0.2 mm 3 mps 728 mmHg 50%
    16:00 +27°C° 0.2 mm 2 mps 728 mmHg 54%
    17:00 +25°C° 0 mm 2 mps 728 mmHg 60%
    18:00 +23°C° 0 mm 1 mps 728 mmHg 67%
    19:00 +22°C° 0 mm 1 mps 728 mmHg 73%
    20:00 +21°C° 0 mm 1 mps 728 mmHg 73%
    21:00 +21°C° 0 mm 1 mps 728 mmHg 74%
    22:00 +21°C° 0 mm 1 mps 729 mmHg 75%
    23:00 +20°C° 0 mm 1 mps 729 mmHg 77%

    Tomorrow, 20 September, Friday

    Time Temperature Precipitation Wind Pressure Humidity
    00:00 +20°C° 0 mm 1 mps 729 mmHg 78%
    01:00 +20°C° 0 mm 1 mps 729 mmHg 80%
    02:00 +20°C° 0.1 mm 1 mps 729 mmHg 81%
    03:00 +19°C° 0.1 mm 1 mps 729 mmHg 83%
    04:00 +19°C° 0.1 mm 1 mps 729 mmHg 84%
    05:00 +19°C° 0.2 mm 2 mps 729 mmHg 82%
    06:00 +20°C° 0.2 mm 2 mps 729 mmHg 80%
    07:00 +20°C° 0.2 mm 2 mps 729 mmHg 78%
    08:00 +23°C° 0.4 mm 2 mps 730 mmHg 72%
    09:00 +25°C° 0.4 mm 2 mps 730 mmHg 66%
    10:00 +26°C° 0.4 mm 2 mps 731 mmHg 60%
    11:00 +26°C° 0.8 mm 2 mps 731 mmHg 61%
    12:00 +26°C° 0.8 mm 2 mps 731 mmHg 62%
    13:00 +26°C° 0.8 mm 2 mps 731 mmHg 63%
    14:00 +26°C° 0.6 mm 2 mps 731 mmHg 64%
    15:00 +25°C° 0.6 mm 2 mps 731 mmHg 66%
    16:00 +25°C° 0.6 mm 2 mps 730 mmHg 67%
    17:00 +23°C° 0 mm 2 mps 731 mmHg 73%
    18:00 +21°C° 0 mm 2 mps 731 mmHg 79%
    19:00 +19°C° 0 mm 2 mps 731 mmHg 86%
    20:00 +19°C° 0 mm 2 mps 731 mmHg 86%
    21:00 +19°C° 0 mm 2 mps 731 mmHg 86%
    22:00 +18°C° 0 mm 2 mps 732 mmHg 85%
    23:00 +18°C° 0 mm 2 mps 732 mmHg 85%

    Day after tomorrow, 21 September, Saturday

    Time Temperature Precipitation Wind Pressure Humidity
    00:00 +19°C° 0 mm 1 mps 732 mmHg 84%
    01:00 +19°C° 0 mm 1 mps 732 mmHg 84%
    02:00 +19°C° 0 mm 1 mps 732 mmHg 84%
    03:00 +18°C° 0 mm 1 mps 732 mmHg 83%
    04:00 +17°C° 0 mm 2 mps 732 mmHg 83%
    05:00 +19°C° 0 mm 1 mps 732 mmHg 80%
    06:00 +20°C° 0 mm 1 mps 732 mmHg 77%
    07:00 +20°C° 0 mm 1 mps 732 mmHg 73%
    08:00 +22°C° 0 mm 1 mps 732 mmHg 66%
    09:00 +25°C° 0 mm 1 mps 733 mmHg 58%
    10:00 +27°C° 0 mm 1 mps 733 mmHg 51%
    11:00 +27°C° 0 mm 2 mps 733 mmHg 50%
    12:00 +27°C° 0 mm 2 mps 733 mmHg 49%
    13:00 +28°C° 0 mm 2 mps 733 mmHg 48%
    14:00 +27°C° 0 mm 2 mps 733 mmHg 50%
    15:00 +26°C° 0 mm 2 mps 733 mmHg 52%
    16:00 +26°C° 0 mm 1 mps 733 mmHg 54%
    17:00 +24°C° 0 mm 1 mps 732 mmHg 60%
    18:00 +21°C° 0 mm 2 mps 732 mmHg 66%
    19:00 +19°C° 0 mm 2 mps 732 mmHg 73%
    20:00 +19°C° 0 mm 1 mps 732 mmHg 74%
    21:00 +19°C° 0 mm 1 mps 732 mmHg 74%
    22:00 +19°C° 0 mm 1 mps 732 mmHg 75%
    23:00 +19°C° 0 mm 1 mps 732 mmHg 74%

    22 September, Sunday

    Time Temperature Precipitation Wind Pressure Humidity
    00:00 +18°C° 0 mm 2 mps 732 mmHg 74%
    01:00 +18°C° 0 mm 2 mps 732 mmHg 73%
    02:00 +19°C° 0 mm 1 mps 732 mmHg 70%
    03:00 +19°C° 0 mm 1 mps 731 mmHg 67%
    04:00 +19°C° 0 mm 1 mps 731 mmHg 65%
    05:00 +20°C° 0 mm 1 mps 731 mmHg 62%
    06:00 +21°C° 0 mm 1 mps 731 mmHg 60%
    07:00 +22°C° 0 mm 1 mps 731 mmHg 58%
    08:00 +24°C° 0 mm 1 mps 732 mmHg 53%
    09:00 +26°C° 0 mm 1 mps 732 mmHg 49%
    10:00 +28°C° 0 mm 2 mps 732 mmHg 44%
    11:00 +28°C° 0 mm 2 mps 732 mmHg 44%
    12:00 +29°C° 0 mm 2 mps 732 mmHg 43%
    13:00 +29°C° 0 mm 2 mps 731 mmHg 42%
    14:00 +29°C° 0 mm 2 mps 731 mmHg 44%
    15:00 +29°C° 0 mm 1 mps 730 mmHg 45%
    16:00 +28°C° 0 mm 1 mps 730 mmHg 47%
    17:00 +27°C° 0 mm 1 mps 730 mmHg 52%
    18:00 +25°C° 0 mm 1 mps 730 mmHg 58%
    19:00 +23°C° 0 mm 1 mps 730 mmHg 63%
    20:00 +24°C° 0 mm 1 mps 730 mmHg 60%
    21:00 +24°C° 0 mm 1 mps 730 mmHg 58%
    22:00 +24°C° 0 mm 1 mps 730 mmHg 55%
    23:00 +24°C° 0 mm 1 mps 730 mmHg 55%

    23 September, Monday

    Time Temperature Precipitation Wind Pressure Humidity
    00:00 +24°C° 0 mm 1 mps 730 mmHg 55%
    01:00 +23°C° 0 mm 1 mps 729 mmHg 55%
    02:00 +23°C° 0 mm 2 mps 729 mmHg 54%
    03:00 +23°C° 0 mm 2 mps 729 mmHg 54%
    04:00 +23°C° 0 mm 2 mps 728 mmHg 53%
    05:00 +24°C° 0 mm 2 mps 728 mmHg 52%
    06:00 +25°C° 0 mm 1 mps 728 mmHg 51%
    07:00 +25°C° 0 mm 1 mps 728 mmHg 50%
    08:00 +27°C° 0 mm 2 mps 728 mmHg 46%
    09:00 +29°C° 0 mm 2 mps 729 mmHg 41%
    10:00 +31°C° 0 mm 3 mps 729 mmHg 36%
    11:00 +33°C° 0 mm 3 mps 728 mmHg 34%
    12:00 +33°C° 0 mm 4 mps 728 mmHg 33%
    13:00 +34°C° 0 mm 4 mps 728 mmHg 32%
    14:00 +33°C° 0 mm 4 mps 727 mmHg 34%
    15:00 +31°C° 0 mm 3 mps 727 mmHg 37%
    16:00 +30°C° 0 mm 3 mps 726 mmHg 40%
    17:00 +28°C° 0 mm 3 mps 726 mmHg 48%
    18:00 +26°C° 0 mm 3 mps 726 mmHg 57%
    19:00 +23°C° 0 mm 2 mps 726 mmHg 66%
    20:00 +22°C° 0 mm 3 mps 726 mmHg 69%
    21:00 +22°C° 0 mm 3 mps 726 mmHg 71%
    22:00 +22°C° 0 mm 3 mps 726 mmHg 74%
    23:00 +22°C° 0.1 mm 3 mps 726 mmHg 79%

    24 September, Tuesday

    Time Temperature Precipitation Wind Pressure Humidity
    00:00 +22°C° 0.1 mm 3 mps 726 mmHg 85%
    01:00 +21°C° 0.1 mm 3 mps 726 mmHg 90%
    02:00 +21°C° 0.1 mm 3 mps 726 mmHg 90%
    03:00 +21°C° 0.1 mm 3 mps 725 mmHg 91%
    04:00 +20°C° 0.1 mm 3 mps 725 mmHg 91%
    05:00 +20°C° 0 mm 3 mps 725 mmHg 87%
    06:00 +20°C° 0 mm 3 mps 725 mmHg 83%
    07:00 +20°C° 0 mm 3 mps 725 mmHg 80%
    08:00 +22°C° 0.1 mm 4 mps 725 mmHg 73%
    09:00 +23°C° 0.1 mm 4 mps 726 mmHg 66%
    10:00 +25°C° 0.1 mm 5 mps 726 mmHg 60%
    11:00 +25°C° 0 mm 5 mps 726 mmHg 57%
    12:00 +25°C° 0 mm 5 mps 726 mmHg 54%
    13:00 +26°C° 0 mm 5 mps 726 mmHg 51%
    14:00 +25°C° 0 mm 5 mps 725 mmHg 55%
    15:00 +23°C° 0 mm 5 mps 725 mmHg 59%
    16:00 +22°C° 0 mm 5 mps 725 mmHg 64%
    17:00 +21°C° 0.1 mm 4 mps 725 mmHg 72%
    18:00 +19°C° 0.1 mm 4 mps 725 mmHg 80%
    19:00 +18°C° 0.1 mm 3 mps 726 mmHg 88%
    20:00 +18°C° 0.1 mm 3 mps 726 mmHg 87%
    21:00 +18°C° 0.1 mm 2 mps 726 mmHg 86%
    22:00 +18°C° 0.1 mm 2 mps 726 mmHg 85%
    23:00 +17°C° 0 mm 2 mps 726 mmHg 86%
    Show more